This is the latest recevied weather packets stored in our database for station/object SP2TMT-10. If no packets are shown the sender has not sent any weather packets the latest 10 day(s).
| Time | Temp. | Humidity | Pressure | Rain* | Wind** | Luminosity | Snow |
|---|---|---|---|---|---|---|---|
| 1777532151 | 19.44° C | 39% | 1031.3 hPa | - | - | - | - |
| 1777531251 | 19.44° C | 39% | 1031.2 hPa | - | - | - | - |
| 1777530351 | 19.44° C | 40% | 1031.3 hPa | - | - | - | - |
| 1777529446 | 19.44° C | 41% | 1031.1 hPa | - | - | - | - |
| 1777528545 | 19.44° C | 42% | 1031.1 hPa | - | - | - | - |
| 1777527645 | 19.44° C | 44% | 1031 hPa | - | - | - | - |
| 1777526745 | 19.44° C | 40% | 1030.9 hPa | - | - | - | - |
| 1777525845 | 19.44° C | 36% | 1031 hPa | - | - | - | - |
| 1777524945 | 19.44° C | 34% | 1030.8 hPa | - | - | - | - |
| 1777524045 | 19.44° C | 31% | 1030.7 hPa | - | - | - | - |
| 1777523145 | 19.44° C | 30% | 1030.8 hPa | - | - | - | - |
| 1777522245 | 19.44° C | 29% | 1030.9 hPa | - | - | - | - |
| 1777521345 | 19.44° C | 29% | 1031.1 hPa | - | - | - | - |
| 1777520445 | 19.44° C | 30% | 1031 hPa | - | - | - | - |
| 1777519544 | 19.44° C | 30% | 1030.9 hPa | - | - | - | - |
| 1777518649 | 19.44° C | 29% | 1031 hPa | - | - | - | - |
| 1777517744 | 19.44° C | 28% | 1031.1 hPa | - | - | - | - |
| 1777516844 | 19.44° C | 28% | 1030.9 hPa | - | - | - | - |
| 1777515939 | 19.44° C | 28% | 1031 hPa | - | - | - | - |
| 1777515039 | 19.44° C | 29% | 1030.9 hPa | - | - | - | - |
| 1777514139 | 19.44° C | 28% | 1030.9 hPa | - | - | - | - |
| 1777513238 | 19.44° C | 28% | 1030.9 hPa | - | - | - | - |
| 1777512338 | 19.44° C | 28% | 1030.8 hPa | - | - | - | - |
| 1777511438 | 19.44° C | 28% | 1030.9 hPa | - | - | - | - |
| 1777510538 | 19.44° C | 29% | 1030.7 hPa | - | - | - | - |
* Rain since midnight (hover to see other rain measurements)
** Current wind speed in m/s (hover to see current wind gust speed)